EW2785 Weather Reports


time (UTC)temp
C
wind
direction
speed
KPH
gust
KPH
rain 1hr
cm
rain 24hr
cm
rain mn
cm
humidity
%
barometer
mb
20260505190013 25 142 8.0 20.9 0.00 0.00 0.00 39 1001.6
20260505184521 25 159 8.0 32.2 0.00 0.00 0.00 38 1001.8
20260505183031 26 119 6.4 17.7 0.00 0.00 0.00 39 1002.0
20260505181508 26 184 6.4 22.5 0.00 0.00 0.00 38 1002.3
20260505180006 26 146 6.4 20.9 0.00 0.00 0.00 39 1002.3
20260505174504 26 169 12.9 38.6 0.00 0.00 0.00 39 1002.7
20260505173004 25 196 8.0 25.7 0.00 0.00 0.00 40 1002.9
20260505171600 25 230 8.0 32.2 0.00 0.00 0.00 40 1003.0
20260505170101 25 130 6.4 27.4 0.00 0.00 0.00 41 1003.4
20260505164618 25 188 4.8 20.9 0.00 0.00 0.00 42 1003.8
20260505163053 25 95 4.8 17.7 0.00 0.00 0.00 44 1003.8
20260505161553 24 117 6.4 22.5 0.00 0.00 0.00 46 1004.1
20260505153045 21 82 3.2 20.9 0.00 0.00 0.00 52 1004.5
20260505151536 20 123 4.8 19.3 0.00 0.00 0.00 55 1005.0
20260505124521 18 80 1.6 6.4 0.00 0.00 0.00 61 1006.0
20260505123017 17 126 0.0 4.8 0.00 0.00 0.00 61 1005.9
20260505121513 17 72 4.8 11.3 0.00 0.00 0.00 63 1005.9
20260505120009 15 134 1.6 6.4 0.00 0.00 0.00 72 1006.1
20260505114506 12 180 0.0 1.6 0.00 0.00 0.00 82 1006.1
20260505113059 11 149 0.0 1.6 0.00 0.00 0.00 87 1006.0
20260505111556 10 150 0.0 0.0 0.00 0.00 0.00 88 1006.2
20260505110104 10 150 0.0 0.0 0.00 0.00 0.00 87 1006.4
20260505101546 8 140 0.0 0.0 0.00 0.00 0.00 88 1005.8
20260505100047 8 140 0.0 1.6 0.00 0.00 0.00 88 1005.7
20260505094543 8 140 0.0 0.0 0.00 0.00 0.00 88 1005.7
20260505093041 7 213 0.0 1.6 0.00 0.00 0.00 88 1005.9
20260505091540 7 214 0.0 3.2 0.00 0.00 0.00 88 1005.8
20260505090041 7 209 0.0 4.8 0.00 0.00 0.00 88 1005.9
20260505084546 7 233 0.0 3.2 0.00 0.00 0.00 88 1006.0
20260505083038 6 287 0.0 3.2 0.00 0.00 0.00 88 1006.0
20260505081538 6 287 0.0 1.6 0.00 0.00 0.00 88 1006.1
20260505080038 6 287 0.0 3.2 0.00 0.00 0.00 87 1005.8
20260505074538 6 282 1.6 4.8 0.00 0.00 0.00 87 1006.0
20260505073042 6 288 0.0 3.2 0.00 0.00 0.00 87 1005.9
20260505071534 6 288 0.0 3.2 0.00 0.00 0.00 88 1006.1
20260505070040 6 295 0.0 6.4 0.00 0.00 0.00 88 1006.2
20260505064533 6 348 0.0 3.2 0.00 0.00 0.00 87 1006.2
20260505063030 6 35 0.0 4.8 0.00 0.00 0.00 87 1006.2
20260505061537 6 275 0.0 3.2 0.00 0.00 0.00 87 1006.2
20260505060027 6 250 0.0 4.8 0.00 0.00 0.00 86 1006.3
20260505054533 6 194 0.0 3.2 0.00 0.00 0.00 85 1006.3
20260505053022 6 188 0.0 1.6 0.00 0.00 0.00 85 1006.3
20260505051524 6 188 0.0 0.0 0.00 0.00 0.00 84 1006.5
20260505041526 7 188 0.0 1.6 0.00 0.00 0.00 80 1006.3
20260505040010 8 188 0.0 1.6 0.00 0.00 0.00 79 1006.2
20260505034519 8 188 0.0 1.6 0.00 0.00 0.00 78 1006.2
20260505033010 9 188 0.0 0.0 0.00 0.00 0.00 76 1006.2
20260505031523 10 188 0.0 0.0 0.00 0.00 0.00 74 1006.1
20260505030009 10 188 0.0 0.0 0.00 0.00 0.00 72 1006.1
20260505024509 11 188 0.0 0.0 0.00 0.00 0.00 71 1006.4
20260505023010 11 188 0.0 0.0 0.00 0.00 0.00 69 1006.4
20260505021509 12 188 0.0 0.0 0.00 0.00 0.00 67 1006.3
20260505020007 12 188 0.0 0.0 0.00 0.00 0.00 66 1006.2
20260505014507 13 188 0.0 0.0 0.00 0.00 0.00 64 1006.1
20260505013006 14 188 0.0 1.6 0.00 0.00 0.00 61 1006.1
20260505011505 15 188 0.0 0.0 0.00 0.00 0.00 57 1006.0
20260505010005 16 188 0.0 0.0 0.00 0.00 0.00 55 1005.9
20260505004505 16 188 0.0 0.0 0.00 0.00 0.00 51 1005.9
20260505003004 17 188 0.0 1.6 0.00 0.00 0.00 47 1005.8
20260505001504 17 188 0.0 0.0 0.00 0.00 0.00 45 1005.6
20260505000006 18 188 0.0 1.6 0.00 0.00 0.00 43 1005.5
20260504234503 18 186 0.0 3.2 0.00 0.00 0.00 43 1005.3
20260504233002 19 190 0.0 6.4 0.00 0.00 0.00 41 1005.2
20260504231502 19 188 0.0 12.9 0.00 0.00 0.00 40 1004.9
20260504230002 20 180 4.8 20.9 0.00 0.00 0.00 37 1004.7
20260504224501 20 190 6.4 17.7 0.00 0.00 0.00 36 1004.6
20260504223134 20 176 1.6 19.3 0.00 0.00 0.00 37 1004.5
20260504221559 20 200 1.6 16.1 0.00 0.00 0.00 36 1004.5
20260504220059 20 192 4.8 12.9 0.00 0.00 0.00 37 1004.6
20260504214559 20 208 3.2 16.1 0.00 0.00 0.00 37 1004.6
20260504213105 20 192 3.2 19.3 0.00 0.00 0.00 37 1004.5
20260504211600 21 170 8.0 19.3 0.00 0.00 0.00 37 1004.5
20260504210059 21 183 6.4 19.3 0.00 0.00 0.00 36 1004.6
20260504204555 21 180 3.2 25.7 0.00 0.00 0.00 38 1004.8
20260504203106 20 177 11.3 35.4 0.00 0.00 0.00 38 1004.9
20260504201556 20 210 6.4 22.5 0.00 0.00 0.00 40 1005.1
20260504200054 20 156 6.4 24.1 0.00 0.00 0.00 38 1005.1
20260504194550 21 148 9.7 25.7 0.00 0.00 0.00 38 1005.6
20260504193048 21 198 6.4 24.1 0.00 0.00 0.00 39 1005.4
20260504191554 20 166 4.8 22.5 0.00 0.00 0.00 43 1005.6
20260504190046 20 157 6.4 33.8 0.00 0.00 0.00 41 1005.7